Regional Weather Roundup
Issued by NWS

Home | Current Version | Previous Version | Graphics & Text | Print | Product List | Glossary On
Versions: 1 2 3 4 5 6 7 8 9 10 11 12 13 14 15 16 17 18 19 20 21 22 23 24 25 26 27 28 29 30 31 32 33 34 35 36 37 38 39 40 41 42 43 44 45 46 47 48 49 50
329
ASUS44 KLIX 171305
RWRLA
LOUISIANA WEATHER ROUNDUP
NATIONAL WEATHER SERVICE NEW ORLEANS LA
700 AM CST WED DEC 17 2014

NOTE: "FAIR" INDICATES FEW OR NO CLOUDS BELOW 12,000 FEET WITH NO
      SIGNIFICANT WEATHER AND/OR OBSTRUCTIONS TO VISIBILITY.
      SKY/WX - SKY CONDITION AND SIGNIFICANT WEATHER.
      TMP - AIR TEMPERATURE.    DP   - DEWPOINT TEMPERATURE.
      RH  - RELATIVE HUMIDITY.  PRES - PRESSURE.
      HX  - HEAT INDEX.         WCI  - WIND CHILL INDEX.

*  THESE STATIONS ARE NOT NWS OR FAA STATIONS AND ARE NOT UNDER
   NWS QUALITY CONTROL.

LAZ040-048-061>063-065-066-069-171400-
SOUTHEAST LOUISIANA

CITY           SKY/WX    TMP DP  RH WIND       PRES   REMARKS
N.O. AUDUBON     N/A     47  39  72 MISG        N/A
N.O. INTL ARPT MOCLDY    46  38  73 E3        30.27S
N.O. LAKEFRONT CLEAR     50  39  66 E12       30.28S
N.O. DOWNTOWN* FAIR      48  36  61 NE5       30.27F
SLIDELL        PTCLDY    32  29  88 CALM      30.27S
BATON ROUGE    CLEAR     35  33  92 CALM      30.28R
BOOTHVILLE     CLEAR     52  45  77 NE6       30.26S
BELLE CHASSE   MOCLDY    41  37  86 CALM      30.27S
BOGALUSA*        N/A     33  32  93 CALM      30.29S
GALLIANO*      SUNNY     47  43  84 MISG      30.27S
NEW ROADS*     FAIR      35  34  95 CALM      30.29R
GONZALES*      FAIR      37  37 100 MISG      30.27R
HAMMOND*       NOT AVBL
HOUMA*         CLEAR     39  37  93 N3        30.27S
PORT FOURCHON* SUNNY     54  46  76 E7G13     30.29S

$$

LAZ041-044-053-054-171400-
SOUTHWEST LOUISIANA

CITY           SKY/WX    TMP DP  RH WIND       PRES   REMARKS
LAKE CHARLES   PTCLDY    40  37  89 NE5       30.27R
LAFAYETTE      PTCLDY    39  37  92 CALM      30.28R
PATTERSON      CLEAR     39  36  87 CALM      30.28R
SALT POINT       N/A     45  40  82 CALM      30.26R
NEW IBERIA     PTCLDY    42  37  82 E5        30.28R
CHENAULT AIRPK CLEAR     41  37  87 NE7       30.28R

$$

LAZ027-028-171400-
CENTRAL LOUISIANA

CITY           SKY/WX    TMP DP  RH WIND       PRES   REMARKS
FORT POLK      PTCLDY    40  36  86 NE5       30.26S
ALEXANDRIA INT CLEAR     35  34  96 CALM      30.28R
ALEXANDRIA     CLEAR     33  31  92 CALM      30.29R

$$

LAZ001-002-171400-
NORTHWEST LOUISIANA

CITY           SKY/WX    TMP DP  RH WIND       PRES   REMARKS
SHREVEPORT     CLOUDY    37  32  82 NE6       30.30R WCI  32
BARKSDALE AFB  NOT AVBL
DTN SHREVEPORT CLOUDY    35  30  82 NE6       30.31R WCI  30

$$

LAZ014-016-171400-
NORTHEAST LOUISIANA

CITY           SKY/WX    TMP DP  RH WIND       PRES   REMARKS
MONROE         PTCLDY    34  33  96 N5        30.33R WCI  30
TALLULAH       PTCLDY    36  33  89 N7        30.31R WCI  30

$$




USA.gov is the U.S. government's official web portal to all federal, state and local government web resources and services.